Precipitable_Water
0.40 0.41 0.40 0.40 0.43 0.45 0.47 0.48 0.48 0.49 0.49 0.49 0.47 0.46 0.42 0.38 0.32 0.29 0.27 0.28 0.29 0.33 0.34 0.28 0.31 0.34 0.33 0.32 0.35 0.38 0.41 0.44 0.45 0.46 0.47 0.49 0.53 0.56 0.59 0.64 0.70 0.75 0.80 0.83 0.86 0.88 0.92 0.96 1.01 1.06 1.11 1.16 1.18 1.15 1.10 1.05 1.01 0.98 0.96 0.94 0.95 1.00 1.03 1.05 1.12 1.20 1.29 1.35 1.39 1.41 1.40 1.42 1.50 1.56
0.44 0.44 0.44 0.45 0.45 0.48 0.49 0.49 0.51 0.51 0.51 0.51 0.50 0.49 0.48 0.46 0.39 0.36 0.33 0.34 0.39 0.38 0.42 0.42 0.37 0.37 0.37 0.34 0.32 0.33 0.36 0.40 0.40 0.41 0.43 0.44 0.46 0.49 0.50 0.50 0.51 0.54 0.59 0.64 0.69 0.72 0.75 0.77 0.79 0.83 0.87 0.91 0.95 1.01 1.08 1.07 1.00 0.95 0.90 0.84 0.82 0.85 0.90 0.95 0.97 1.01 1.06 1.11 1.19 1.27 1.32 1.38 1.41 1.44
0.49 0.48 0.48 0.49 0.49 0.50 0.50 0.51 0.51 0.51 0.51 0.51 0.53 0.54 0.55 0.52 0.50 0.46 0.42 0.36 0.42 0.46 0.39 0.39 0.40 0.37 0.41 0.40 0.39 0.38 0.38 0.39 0.40 0.40 0.40 0.41 0.42 0.43 0.46 0.48 0.47 0.47 0.47 0.48 0.50 0.53 0.56 0.59 0.62 0.65 0.68 0.70 0.72 0.75 0.80 0.90 0.98 1.03 1.01 0.96 0.90 0.85 0.86 0.90 0.91 0.90 0.92 0.97 1.05 1.09 1.14 1.20 1.25 1.29
0.51 0.49 0.49 0.51 0.52 0.54 0.54 0.53 0.54 0.55 0.56 0.55 0.54 0.56 0.56 0.56 0.56 0.54 0.50 0.45 0.44 0.50 0.47 0.42 0.40 0.40 0.40 0.39 0.38 0.39 0.40 0.41 0.40 0.40 0.42 0.42 0.42 0.41 0.42 0.45 0.45 0.45 0.45 0.45 0.46 0.46 0.47 0.48 0.49 0.51 0.53 0.55 0.58 0.61 0.62 0.65 0.70 0.76 0.84 0.89 0.89 0.87 0.85 0.86 0.90 0.91 0.89 0.86 0.85 0.87 0.93 0.99 1.05 1.10
0.53 0.51 0.50 0.50 0.51 0.53 0.52 0.53 0.54 0.56 0.58 0.60 0.59 0.59 0.58 0.58 0.59 0.57 0.55 0.52 0.50 0.53 0.55 0.49 0.46 0.46 0.44 0.40 0.40 0.38 0.40 0.41 0.42 0.41 0.41 0.41 0.41 0.42 0.43 0.44 0.45 0.44 0.44 0.44 0.44 0.44 0.45 0.45 0.46 0.46 0.47 0.47 0.48 0.51 0.54 0.55 0.55 0.57 0.60 0.64 0.68 0.72 0.73 0.74 0.76 0.81 0.86 0.88 0.87 0.85 0.85 0.84 0.85 0.90
0.56 0.56 0.54 0.53 0.53 0.54 0.51 0.52 0.52 0.53 0.55 0.55 0.55 0.54 0.53 0.53 0.53 0.56 0.53 0.52 0.51 0.49 0.53 0.53 0.54 0.51 0.50 0.42 0.43 0.41 0.39 0.39 0.39 0.38 0.40 0.40 0.40 0.39 0.40 0.43 0.46 0.44 0.43 0.42 0.42 0.43 0.43 0.43 0.44 0.45 0.45 0.46 0.46 0.47 0.50 0.51 0.53 0.54 0.55 0.57 0.60 0.64 0.68 0.68 0.68 0.70 0.73 0.79 0.84 0.86 0.85 0.85 0.84 0.82
0.62 0.61 0.61 0.62 0.62 0.60 0.56 0.55 0.55 0.55 0.53 0.54 0.53 0.54 0.55 0.54 0.56 0.56 0.54 0.51 0.49 0.48 0.49 0.53 0.52 0.52 0.51 0.48 0.45 0.45 0.44 0.43 0.41 0.37 0.36 0.37 0.38 0.39 0.39 0.40 0.43 0.45 0.44 0.42 0.41 0.40 0.40 0.41 0.42 0.43 0.43 0.43 0.44 0.45 0.47 0.47 0.48 0.51 0.52 0.54 0.56 0.59 0.64 0.69 0.68 0.66 0.67 0.69 0.75 0.80 0.82 0.82 0.81 0.81
0.74 0.73 0.72 0.70 0.69 0.67 0.63 0.60 0.58 0.59 0.59 0.58 0.57 0.57 0.58 0.58 0.57 0.56 0.54 0.52 0.50 0.48 0.46 0.47 0.48 0.49 0.49 0.49 0.49 0.48 0.47 0.45 0.43 0.41 0.40 0.38 0.35 0.35 0.35 0.36 0.39 0.41 0.40 0.40 0.40 0.40 0.39 0.39 0.40 0.41 0.41 0.42 0.42 0.42 0.43 0.44 0.45 0.46 0.48 0.50 0.52 0.54 0.58 0.65 0.69 0.67 0.64 0.66 0.70 0.74 0.76 0.76 0.77 0.76
0.79 0.78 0.77 0.77 0.75 0.72 0.68 0.67 0.65 0.64 0.62 0.61 0.58 0.55 0.55 0.53 0.52 0.50 0.49 0.49 0.49 0.47 0.44 0.42 0.43 0.44 0.45 0.47 0.48 0.49 0.46 0.46 0.45 0.45 0.43 0.42 0.40 0.38 0.36 0.34 0.36 0.37 0.36 0.36 0.37 0.37 0.38 0.38 0.38 0.39 0.39 0.39 0.39 0.39 0.39 0.39 0.40 0.41 0.43 0.45 0.47 0.50 0.53 0.57 0.65 0.70 0.70 0.68 0.67 0.68 0.69 0.70 0.69 0.69
0.81 0.81 0.80 0.80 0.79 0.76 0.73 0.71 0.71 0.69 0.66 0.64 0.61 0.59 0.56 0.54 0.52 0.51 0.51 0.51 0.50 0.49 0.46 0.45 0.42 0.43 0.43 0.44 0.44 0.46 0.45 0.43 0.42 0.42 0.43 0.44 0.44 0.42 0.39 0.38 0.38 0.39 0.36 0.35 0.34 0.35 0.34 0.35 0.36 0.38 0.39 0.40 0.40 0.39 0.38 0.38 0.37 0.38 0.40 0.42 0.44 0.46 0.48 0.52 0.57 0.65 0.70 0.72 0.71 0.71 0.71 0.71 0.70 0.68
0.80 0.78 0.79 0.79 0.80 0.80 0.79 0.77 0.75 0.73 0.70 0.67 0.66 0.65 0.62 0.59 0.56 0.53 0.53 0.53 0.52 0.50 0.47 0.46 0.46 0.45 0.46 0.45 0.42 0.43 0.45 0.43 0.41 0.39 0.38 0.40 0.43 0.44 0.44 0.42 0.42 0.43 0.40 0.39 0.37 0.36 0.35 0.34 0.34 0.35 0.37 0.40 0.41 0.41 0.41 0.41 0.40 0.40 0.41 0.42 0.43 0.45 0.46 0.48 0.50 0.56 0.63 0.68 0.71 0.74 0.74 0.73 0.72 0.71
0.81 0.81 0.81 0.80 0.79 0.78 0.78 0.79 0.79 0.78 0.75 0.72 0.70 0.69 0.67 0.64 0.61 0.59 0.59 0.59 0.57 0.54 0.51 0.49 0.48 0.48 0.47 0.47 0.47 0.46 0.44 0.41 0.41 0.43 0.41 0.38 0.38 0.40 0.43 0.42 0.41 0.44 0.41 0.39 0.38 0.37 0.37 0.36 0.35 0.34 0.33 0.36 0.37 0.38 0.39 0.40 0.42 0.43 0.43 0.43 0.45 0.45 0.45 0.47 0.49 0.52 0.56 0.61 0.66 0.70 0.74 0.76 0.76 0.75
0.80 0.81 0.82 0.83 0.83 0.80 0.77 0.76 0.76 0.76 0.77 0.74 0.71 0.70 0.69 0.66 0.65 0.63 0.63 0.63 0.63 0.60 0.58 0.55 0.54 0.52 0.50 0.50 0.49 0.47 0.46 0.44 0.42 0.44 0.42 0.39 0.40 0.41 0.40 0.41 0.44 0.43 0.40 0.39 0.38 0.37 0.36 0.35 0.34 0.34 0.33 0.35 0.36 0.34 0.34 0.37 0.40 0.42 0.43 0.45 0.45 0.45 0.47 0.48 0.49 0.51 0.54 0.57 0.62 0.68 0.72 0.76 0.78 0.77
0.81 0.82 0.83 0.84 0.84 0.84 0.82 0.78 0.75 0.74 0.74 0.74 0.72 0.70 0.69 0.67 0.65 0.64 0.64 0.64 0.64 0.63 0.60 0.57 0.56 0.54 0.52 0.51 0.50 0.48 0.49 0.50 0.50 0.47 0.45 0.41 0.41 0.40 0.38 0.39 0.41 0.43 0.40 0.37 0.35 0.37 0.38 0.36 0.34 0.33 0.32 0.35 0.35 0.33 0.33 0.35 0.38 0.39 0.42 0.44 0.46 0.47 0.46 0.48 0.51 0.52 0.53 0.56 0.59 0.63 0.69 0.74 0.77 0.78
0.78 0.79 0.80 0.80 0.81 0.82 0.82 0.81 0.79 0.75 0.72 0.72 0.71 0.69 0.68 0.67 0.65 0.63 0.63 0.63 0.63 0.61 0.59 0.58 0.57 0.55 0.55 0.54 0.53 0.51 0.51 0.51 0.49 0.47 0.46 0.44 0.42 0.38 0.35 0.32 0.36 0.43 0.38 0.35 0.34 0.34 0.37 0.36 0.33 0.34 0.33 0.34 0.33 0.33 0.35 0.37 0.39 0.39 0.40 0.43 0.48 0.50 0.51 0.50 0.50 0.52 0.54 0.55 0.57 0.60 0.64 0.70 0.75 0.78
0.72 0.74 0.76 0.78 0.79 0.79 0.78 0.77 0.75 0.72 0.70 0.70 0.68 0.67 0.66 0.65 0.65 0.66 0.65 0.62 0.61 0.60 0.57 0.56 0.56 0.55 0.53 0.52 0.53 0.52 0.51 0.50 0.48 0.46 0.44 0.42 0.40 0.37 0.35 0.33 0.30 0.34 0.37 0.33 0.31 0.31 0.34 0.34 0.33 0.32 0.34 0.36 0.36 0.36 0.37 0.37 0.39 0.42 0.43 0.46 0.47 0.49 0.50 0.52 0.53 0.53 0.53 0.55 0.56 0.59 0.61 0.64 0.68 0.73
0.56 0.58 0.59 0.61 0.65 0.69 0.72 0.73 0.73 0.69 0.66 0.65 0.64 0.62 0.61 0.62 0.64 0.65 0.65 0.65 0.64 0.61 0.58 0.56 0.56 0.55 0.53 0.50 0.50 0.51 0.49 0.48 0.43 0.42 0.41 0.40 0.39 0.37 0.34 0.32 0.32 0.33 0.36 0.33 0.29 0.27 0.30 0.32 0.31 0.30 0.34 0.36 0.37 0.38 0.39 0.38 0.38 0.44 0.47 0.48 0.48 0.48 0.49 0.49 0.50 0.53 0.55 0.55 0.54 0.55 0.58 0.60 0.62 0.65
0.55 0.56 0.56 0.56 0.57 0.60 0.63 0.64 0.64 0.63 0.60 0.60 0.57 0.56 0.58 0.60 0.61 0.61 0.62 0.63 0.62 0.61 0.60 0.59 0.56 0.55 0.53 0.48 0.48 0.48 0.47 0.42 0.39 0.39 0.38 0.38 0.37 0.35 0.34 0.35 0.35 0.36 0.37 0.32 0.30 0.26 0.27 0.30 0.30 0.29 0.31 0.34 0.35 0.37 0.38 0.38 0.38 0.44 0.50 0.48 0.48 0.48 0.49 0.49 0.49 0.49 0.50 0.53 0.56 0.58 0.58 0.59 0.61 0.62
0.46 0.48 0.50 0.51 0.51 0.53 0.53 0.54 0.54 0.53 0.53 0.52 0.51 0.51 0.52 0.53 0.55 0.56 0.57 0.58 0.58 0.58 0.59 0.57 0.54 0.52 0.52 0.49 0.47 0.46 0.46 0.45 0.43 0.42 0.40 0.39 0.37 0.37 0.38 0.37 0.37 0.36 0.36 0.34 0.31 0.24 0.27 0.30 0.28 0.28 0.30 0.32 0.33 0.35 0.35 0.36 0.37 0.44 0.49 0.49 0.48 0.49 0.49 0.48 0.48 0.48 0.48 0.48 0.49 0.51 0.55 0.58 0.61 0.61
0.45 0.46 0.47 0.47 0.48 0.48 0.47 0.48 0.49 0.50 0.50 0.49 0.49 0.49 0.50 0.51 0.52 0.54 0.57 0.58 0.56 0.55 0.54 0.51 0.49 0.47 0.46 0.45 0.43 0.43 0.44 0.44 0.43 0.42 0.41 0.39 0.37 0.35 0.33 0.32 0.33 0.32 0.34 0.35 0.31 0.27 0.27 0.30 0.28 0.28 0.31 0.32 0.31 0.33 0.35 0.37 0.40 0.49 0.51 0.48 0.49 0.50 0.49 0.49 0.49 0.48 0.48 0.47 0.47 0.47 0.48 0.50 0.52 0.56
0.44 0.45 0.45 0.45 0.46 0.45 0.45 0.46 0.47 0.48 0.49 0.50 0.51 0.49 0.48 0.49 0.50 0.50 0.52 0.52 0.51 0.49 0.47 0.46 0.45 0.44 0.43 0.42 0.42 0.42 0.43 0.42 0.42 0.40 0.36 0.34 0.35 0.33 0.30 0.30 0.30 0.29 0.32 0.33 0.33 0.30 0.27 0.30 0.29 0.28 0.30 0.31 0.31 0.32 0.34 0.37 0.40 0.46 0.52 0.54 0.54 0.52 0.49 0.48 0.48 0.48 0.48 0.48 0.48 0.48 0.48 0.49 0.50 0.51
0.44 0.45 0.45 0.46 0.45 0.46 0.47 0.50 0.50 0.50 0.50 0.48 0.48 0.47 0.46 0.45 0.45 0.46 0.47 0.47 0.46 0.46 0.45 0.44 0.42 0.41 0.42 0.42 0.42 0.42 0.41 0.41 0.41 0.37 0.33 0.35 0.35 0.31 0.30 0.27 0.28 0.29 0.30 0.32 0.35 0.30 0.27 0.30 0.31 0.29 0.30 0.31 0.32 0.32 0.34 0.36 0.38 0.40 0.43 0.45 0.46 0.47 0.49 0.48 0.47 0.47 0.46 0.46 0.47 0.47 0.47 0.47 0.47 0.48
0.44 0.43 0.44 0.44 0.44 0.44 0.45 0.47 0.49 0.49 0.49 0.48 0.47 0.46 0.45 0.42 0.42 0.43 0.44 0.43 0.42 0.42 0.41 0.41 0.41 0.41 0.42 0.42 0.41 0.41 0.41 0.40 0.40 0.39 0.37 0.35 0.32 0.29 0.29 0.28 0.28 0.25 0.27 0.33 0.36 0.29 0.28 0.29 0.30 0.30 0.27 0.25 0.30 0.33 0.35 0.35 0.35 0.36 0.38 0.40 0.42 0.43 0.45 0.46 0.46 0.46 0.45 0.45 0.46 0.46 0.46 0.46 0.46 0.46
0.43 0.43 0.42 0.43 0.43 0.43 0.43 0.44 0.44 0.44 0.44 0.43 0.43 0.43 0.41 0.40 0.40 0.43 0.43 0.43 0.42 0.41 0.40 0.40 0.41 0.40 0.40 0.40 0.40 0.39 0.40 0.40 0.39 0.38 0.36 0.35 0.33 0.31 0.30 0.29 0.29 0.26 0.28 0.34 0.37 0.31 0.30 0.31 0.29 0.33 0.30 0.26 0.23 0.29 0.33 0.33 0.35 0.36 0.36 0.36 0.36 0.39 0.41 0.42 0.43 0.43 0.43 0.43 0.45 0.47 0.46 0.45 0.45 0.44
0.42 0.41 0.42 0.43 0.43 0.44 0.44 0.44 0.45 0.45 0.45 0.45 0.45 0.45 0.43 0.43 0.43 0.43 0.41 0.41 0.41 0.40 0.40 0.40 0.39 0.38 0.38 0.38 0.39 0.38 0.37 0.37 0.36 0.36 0.36 0.36 0.36 0.34 0.32 0.30 0.30 0.29 0.31 0.34 0.37 0.34 0.29 0.31 0.29 0.31 0.31 0.31 0.29 0.28 0.30 0.33 0.35 0.36 0.37 0.37 0.36 0.37 0.38 0.39 0.39 0.39 0.40 0.41 0.44 0.48 0.48 0.46 0.45 0.44
0.42 0.43 0.43 0.44 0.44 0.44 0.44 0.44 0.44 0.44 0.44 0.43 0.42 0.42 0.42 0.42 0.42 0.42 0.41 0.40 0.40 0.39 0.38 0.37 0.37 0.36 0.35 0.35 0.34 0.34 0.34 0.34 0.34 0.35 0.35 0.36 0.36 0.36 0.35 0.33 0.30 0.28 0.29 0.35 0.37 0.35 0.32 0.30 0.31 0.30 0.30 0.29 0.29 0.31 0.28 0.30 0.33 0.35 0.37 0.38 0.38 0.38 0.39 0.39 0.39 0.38 0.40 0.42 0.45 0.50 0.50 0.49 0.46 0.44
0.43 0.44 0.45 0.45 0.45 0.45 0.44 0.44 0.44 0.43 0.43 0.42 0.41 0.42 0.41 0.41 0.41 0.41 0.40 0.40 0.37 0.36 0.35 0.34 0.32 0.32 0.32 0.31 0.31 0.31 0.31 0.33 0.34 0.35 0.35 0.35 0.35 0.35 0.35 0.36 0.36 0.34 0.34 0.36 0.38 0.37 0.35 0.32 0.34 0.32 0.29 0.30 0.28 0.29 0.29 0.28 0.30 0.36 0.35 0.37 0.38 0.39 0.40 0.40 0.39 0.38 0.40 0.42 0.46 0.50 0.50 0.49 0.47 0.47
0.44 0.44 0.45 0.45 0.45 0.45 0.45 0.44 0.43 0.43 0.42 0.42 0.41 0.41 0.41 0.41 0.40 0.39 0.37 0.36 0.34 0.32 0.31 0.30 0.29 0.29 0.30 0.29 0.29 0.30 0.33 0.34 0.34 0.34 0.34 0.34 0.35 0.35 0.35 0.36 0.36 0.37 0.37 0.38 0.38 0.38 0.37 0.34 0.33 0.35 0.34 0.31 0.29 0.27 0.26 0.31 0.33 0.34 0.33 0.37 0.38 0.39 0.40 0.40 0.40 0.41 0.42 0.43 0.44 0.46 0.47 0.47 0.48 0.47
0.44 0.44 0.44 0.44 0.43 0.42 0.42 0.41 0.41 0.40 0.39 0.39 0.38 0.37 0.36 0.37 0.36 0.36 0.34 0.33 0.31 0.29 0.28 0.28 0.28 0.28 0.29 0.30 0.32 0.34 0.34 0.33 0.33 0.33 0.33 0.34 0.35 0.35 0.36 0.36 0.36 0.37 0.38 0.39 0.39 0.39 0.38 0.36 0.35 0.36 0.35 0.34 0.31 0.30 0.30 0.29 0.31 0.31 0.34 0.33 0.33 0.37 0.40 0.42 0.43 0.42 0.42 0.43 0.43 0.44 0.44 0.44 0.45 0.47
0.42 0.41 0.40 0.39 0.38 0.37 0.37 0.36 0.35 0.34 0.35 0.36 0.36 0.36 0.36 0.35 0.34 0.33 0.32 0.30 0.29 0.28 0.28 0.28 0.28 0.30 0.32 0.33 0.33 0.33 0.33 0.32 0.31 0.32 0.31 0.32 0.32 0.34 0.33 0.33 0.34 0.36 0.37 0.38 0.39 0.39 0.39 0.38 0.37 0.37 0.35 0.35 0.34 0.32 0.32 0.31 0.30 0.32 0.35 0.35 0.36 0.41 0.42 0.42 0.42 0.44 0.44 0.44 0.44 0.44 0.46 0.48 0.48 0.49
0.39 0.38 0.37 0.37 0.36 0.35 0.35 0.35 0.36 0.36 0.37 0.36 0.36 0.36 0.35 0.35 0.34 0.33 0.32 0.31 0.30 0.29 0.30 0.31 0.31 0.31 0.31 0.32 0.32 0.31 0.31 0.31 0.32 0.34 0.33 0.32 0.33 0.34 0.34 0.33 0.32 0.33 0.36 0.38 0.39 0.39 0.39 0.39 0.39 0.39 0.35 0.34 0.35 0.34 0.35 0.35 0.32 0.33 0.35 0.38 0.38 0.34 0.39 0.42 0.43 0.43 0.45 0.45 0.46 0.47 0.47 0.48 0.49 0.51
0.38 0.37 0.37 0.37 0.37 0.36 0.36 0.36 0.36 0.36 0.36 0.35 0.35 0.34 0.34 0.34 0.34 0.33 0.33 0.33 0.33 0.33 0.32 0.31 0.31 0.31 0.31 0.30 0.31 0.31 0.32 0.32 0.34 0.36 0.35 0.34 0.34 0.35 0.35 0.33 0.32 0.34 0.35 0.38 0.40 0.42 0.42 0.41 0.41 0.40 0.39 0.37 0.35 0.36 0.37 0.37 0.35 0.36 0.36 0.39 0.40 0.41 0.42 0.41 0.41 0.43 0.46 0.47 0.46 0.45 0.45 0.46 0.45 0.45
0.37 0.37 0.36 0.34 0.34 0.33 0.32 0.32 0.32 0.32 0.33 0.33 0.34 0.33 0.33 0.33 0.33 0.33 0.33 0.32 0.31 0.31 0.30 0.29 0.29 0.29 0.30 0.31 0.32 0.33 0.33 0.34 0.36 0.38 0.37 0.38 0.37 0.37 0.37 0.35 0.36 0.36 0.36 0.38 0.41 0.43 0.45 0.45 0.45 0.45 0.44 0.43 0.42 0.41 0.38 0.36 0.38 0.40 0.39 0.40 0.41 0.40 0.42 0.44 0.44 0.44 0.47 0.46 0.44 0.44 0.44 0.45 0.45 0.45
0.35 0.34 0.33 0.33 0.32 0.32 0.31 0.31 0.32 0.33 0.33 0.32 0.32 0.32 0.33 0.34 0.33 0.32 0.31 0.30 0.30 0.30 0.30 0.30 0.30 0.31 0.32 0.32 0.34 0.34 0.35 0.36 0.38 0.40 0.40 0.39 0.40 0.39 0.39 0.39 0.40 0.43 0.43 0.43 0.45 0.46 0.48 0.49 0.49 0.49 0.49 0.48 0.48 0.47 0.46 0.43 0.41 0.43 0.44 0.43 0.43 0.42 0.44 0.46 0.46 0.47 0.46 0.45 0.44 0.42 0.41 0.42 0.44 0.46
0.32 0.32 0.32 0.32 0.32 0.32 0.33 0.33 0.33 0.34 0.33 0.33 0.32 0.32 0.32 0.31 0.30 0.30 0.29 0.29 0.30 0.30 0.30 0.32 0.33 0.34 0.34 0.34 0.36 0.36 0.37 0.38 0.40 0.42 0.43 0.44 0.44 0.44 0.45 0.45 0.46 0.47 0.47 0.48 0.48 0.49 0.50 0.50 0.50 0.49 0.49 0.49 0.48 0.51 0.55 0.52 0.47 0.46 0.47 0.47 0.47 0.46 0.46 0.48 0.48 0.48 0.47 0.46 0.46 0.42 0.41 0.43 0.44 0.48
0.33 0.34 0.33 0.33 0.33 0.34 0.34 0.35 0.36 0.35 0.33 0.32 0.31 0.30 0.28 0.28 0.29 0.28 0.27 0.29 0.30 0.31 0.32 0.33 0.34 0.35 0.36 0.37 0.39 0.40 0.41 0.42 0.43 0.44 0.45 0.47 0.48 0.49 0.50 0.50 0.50 0.50 0.50 0.50 0.50 0.51 0.51 0.50 0.50 0.47 0.45 0.45 0.44 0.44 0.46 0.54 0.54 0.51 0.48 0.47 0.50 0.50 0.51 0.51 0.52 0.52 0.51 0.51 0.51 0.48 0.44 0.43 0.46 0.50
0.34 0.34 0.35 0.35 0.36 0.36 0.35 0.36 0.35 0.33 0.32 0.30 0.29 0.29 0.28 0.27 0.26 0.27 0.29 0.31 0.32 0.33 0.34 0.35 0.36 0.38 0.39 0.41 0.42 0.44 0.45 0.45 0.45 0.48 0.49 0.51 0.51 0.51 0.50 0.50 0.49 0.49 0.49 0.50 0.51 0.51 0.51 0.49 0.50 0.47 0.44 0.43 0.41 0.41 0.44 0.50 0.53 0.56 0.53 0.49 0.49 0.50 0.50 0.51 0.51 0.50 0.52 0.53 0.53 0.53 0.51 0.49 0.48 0.51
0.34 0.36 0.36 0.37 0.37 0.37 0.36 0.34 0.32 0.30 0.29 0.30 0.30 0.29 0.28 0.27 0.27 0.27 0.30 0.31 0.32 0.34 0.36 0.37 0.39 0.42 0.43 0.45 0.45 0.46 0.47 0.49 0.50 0.50 0.50 0.51 0.50 0.49 0.49 0.48 0.48 0.48 0.49 0.50 0.50 0.50 0.51 0.50 0.48 0.47 0.45 0.42 0.40 0.41 0.42 0.47 0.49 0.52 0.57 0.55 0.51 0.51 0.53 0.51 0.49 0.48 0.50 0.53 0.53 0.55 0.56 0.53 0.52 0.53
0.37 0.37 0.37 0.37 0.37 0.36 0.33 0.31 0.29 0.29 0.30 0.30 0.29 0.28 0.27 0.26 0.26 0.27 0.29 0.31 0.34 0.36 0.38 0.41 0.43 0.45 0.46 0.47 0.48 0.49 0.49 0.50 0.49 0.50 0.50 0.50 0.50 0.50 0.49 0.49 0.48 0.49 0.49 0.48 0.49 0.50 0.50 0.49 0.48 0.47 0.46 0.44 0.42 0.44 0.46 0.45 0.45 0.50 0.54 0.55 0.53 0.51 0.51 0.51 0.49 0.49 0.50 0.51 0.53 0.56 0.57 0.58 0.59 0.58
0.40 0.41 0.40 0.38 0.36 0.34 0.30 0.30 0.30 0.31 0.31 0.30 0.29 0.28 0.27 0.25 0.25 0.27 0.30 0.32 0.35 0.38 0.41 0.44 0.46 0.47 0.48 0.50 0.50 0.51 0.51 0.51 0.50 0.50 0.50 0.50 0.51 0.50 0.50 0.50 0.49 0.49 0.48 0.47 0.47 0.48 0.48 0.49 0.49 0.49 0.49 0.49 0.50 0.52 0.52 0.52 0.52 0.52 0.52 0.53 0.55 0.54 0.52 0.52 0.50 0.49 0.49 0.52 0.54 0.52 0.51 0.53 0.51 0.54
0.41 0.40 0.39 0.37 0.33 0.30 0.29 0.30 0.32 0.32 0.30 0.30 0.29 0.28 0.27 0.25 0.25 0.27 0.31 0.34 0.37 0.40 0.43 0.46 0.48 0.49 0.50 0.51 0.52 0.51 0.50 0.50 0.50 0.51 0.51 0.51 0.51 0.51 0.51 0.50 0.49 0.49 0.46 0.46 0.47 0.48 0.49 0.51 0.53 0.55 0.54 0.53 0.54 0.55 0.51 0.47 0.44 0.46 0.47 0.50 0.55 0.58 0.58 0.57 0.54 0.52 0.51 0.53 0.53 0.51 0.50 0.49 0.49 0.51
0.41 0.39 0.37 0.33 0.30 0.30 0.31 0.32 0.32 0.31 0.30 0.29 0.29 0.27 0.25 0.24 0.25 0.29 0.32 0.35 0.39 0.42 0.45 0.47 0.49 0.50 0.51 0.52 0.52 0.52 0.50 0.49 0.49 0.50 0.50 0.51 0.50 0.51 0.50 0.49 0.48 0.49 0.47 0.46 0.48 0.50 0.53 0.56 0.56 0.55 0.54 0.53 0.51 0.47 0.44 0.45 0.44 0.45 0.47 0.50 0.54 0.58 0.59 0.59 0.59 0.59 0.58 0.55 0.52 0.49 0.49 0.49 0.50 0.47
0.40 0.35 0.31 0.30 0.30 0.31 0.32 0.32 0.31 0.30 0.29 0.29 0.28 0.26 0.24 0.23 0.25 0.29 0.32 0.35 0.39 0.43 0.46 0.48 0.50 0.50 0.51 0.52 0.52 0.52 0.51 0.50 0.50 0.50 0.51 0.51 0.51 0.50 0.49 0.49 0.49 0.50 0.49 0.50 0.52 0.53 0.54 0.55 0.55 0.53 0.53 0.51 0.50 0.48 0.45 0.46 0.47 0.47 0.47 0.49 0.51 0.55 0.58 0.60 0.60 0.60 0.60 0.60 0.59 0.57 0.55 0.51 0.47 0.43
0.34 0.31 0.31 0.30 0.30 0.32 0.33 0.32 0.31 0.30 0.30 0.29 0.27 0.25 0.22 0.22 0.24 0.29 0.33 0.36 0.39 0.43 0.46 0.48 0.49 0.50 0.51 0.51 0.52 0.52 0.52 0.52 0.52 0.51 0.51 0.51 0.52 0.51 0.50 0.50 0.51 0.51 0.52 0.52 0.52 0.53 0.54 0.54 0.54 0.53 0.50 0.49 0.50 0.48 0.47 0.47 0.47 0.48 0.49 0.50 0.52 0.53 0.53 0.56 0.58 0.60 0.60 0.60 0.59 0.59 0.59 0.59 0.58 0.57
0.32 0.32 0.31 0.30 0.31 0.32 0.32 0.31 0.31 0.30 0.29 0.28 0.26 0.24 0.22 0.22 0.25 0.29 0.33 0.36 0.39 0.43 0.46 0.47 0.48 0.50 0.51 0.51 0.51 0.50 0.52 0.53 0.53 0.53 0.52 0.52 0.52 0.51 0.51 0.51 0.52 0.52 0.52 0.53 0.52 0.52 0.53 0.53 0.54 0.53 0.51 0.50 0.51 0.49 0.49 0.49 0.49 0.49 0.50 0.50 0.50 0.52 0.53 0.53 0.53 0.53 0.54 0.55 0.59 0.60 0.59 0.59 0.59 0.59
Wind_Speed
2 2 1 1 1 1 0 1 1 2 2 2 2 2 2 2 3 3 4 4 5 6 6 6 7 7 7 8 8 8 8 8 9 9 9 9 9 10 10 10 11 12 12 13 14 14 15 15 16 17 18 19 20 22 23 24 24 24 25 25 25 26 26 26 27 27 27 27 27 28 28 29 28 28
2 2 2 2 2 2 2 2 2 2 3 3 3 3 3 3 3 3 4 5 5 6 6 6 7 7 8 8 8 8 9 9 9 9 9 9 9 9 9 9 10 11 11 12 13 13 14 15 16 16 17 18 19 21 22 23 24 25 26 26 27 27 28 28 28 28 29 29 29 29 29 29 29 28
3 3 3 3 3 3 3 3 4 4 4 4 4 3 4 4 4 4 4 5 6 6 7 7 8 8 8 9 9 9 9 9 9 9 10 10 10 10 10 10 10 10 10 11 11 12 13 14 15 15 16 17 18 19 20 21 22 24 25 26 27 28 28 28 29 29 29 29 29 29 29 29 29 29
4 4 4 4 5 5 5 5 5 5 5 5 5 5 5 5 5 5 5 6 7 7 8 8 8 9 9 9 9 9 10 10 10 10 10 11 11 11 11 11 11 11 11 11 12 12 12 13 14 15 15 16 16 17 18 19 20 22 23 25 26 27 28 28 29 29 29 29 28 28 28 28 28 28
6 6 6 6 6 6 7 7 7 7 7 7 7 7 7 7 7 7 7 7 8 9 9 10 10 10 10 10 11 11 11 11 11 11 11 12 12 12 13 13 12 12 13 13 13 13 14 14 15 15 16 16 16 17 17 18 19 20 21 22 24 25 27 28 28 28 29 29 28 28 28 28 28 28
8 8 8 8 8 9 9 9 9 9 8 8 8 9 9 8 8 9 9 9 9 10 11 11 11 12 12 12 12 12 12 12 12 13 13 13 13 14 14 14 14 14 14 15 15 15 16 16 17 17 17 17 18 18 18 18 18 19 19 20 21 23 25 26 27 27 28 28 28 29 28 28 28 28
10 10 10 11 11 11 11 11 11 11 10 10 10 11 11 10 10 10 11 11 11 11 12 12 13 13 13 13 13 14 14 13 14 14 14 14 14 15 15 16 16 16 16 17 17 17 18 18 19 19 19 19 20 20 20 20 20 20 20 20 20 21 22 24 25 26 27 27 27 28 28 28 28 28
11 11 12 12 13 13 13 13 13 13 13 13 13 13 13 13 13 13 13 13 13 13 14 14 14 14 15 15 15 15 15 15 15 15 15 15 16 16 16 17 17 17 17 18 19 19 20 20 21 21 21 21 21 21 21 22 22 21 21 21 21 21 22 22 23 24 25 25 26 26 26 27 27 27
12 12 13 13 14 14 14 14 14 14 14 14 15 15 15 15 15 15 15 15 15 15 15 15 16 16 16 17 17 17 17 17 17 17 17 17 17 18 18 18 18 18 19 19 20 21 21 22 22 23 23 23 23 23 23 23 23 23 23 23 22 22 22 22 23 23 24 24 25 25 25 25 25 26
14 14 14 14 15 15 15 15 15 15 15 15 15 15 16 16 17 17 17 18 18 17 17 17 17 17 18 18 18 19 19 19 19 19 19 19 19 20 20 20 20 20 21 21 22 22 23 23 24 24 24 25 25 25 25 25 25 25 25 24 24 24 23 23 23 24 24 24 25 25 25 25 25 25
16 16 16 16 16 16 16 16 17 17 17 17 17 17 17 17 18 18 19 19 19 19 19 19 19 19 19 20 20 20 20 20 21 21 21 21 22 22 22 22 22 22 23 24 24 25 25 25 25 25 26 26 26 26 26 26 26 26 26 26 26 25 25 25 24 24 24 25 25 26 26 26 26 25
17 18 18 18 18 19 19 19 19 19 20 20 20 20 20 20 20 20 20 20 20 21 21 21 22 22 22 22 22 22 22 22 22 22 23 23 24 24 25 25 25 25 26 26 27 27 27 27 27 27 27 27 27 27 27 28 28 28 28 28 27 27 26 26 26 25 25 26 26 26 27 27 27 26
18 19 20 20 21 22 22 23 23 22 22 22 22 22 22 22 22 22 22 22 23 23 23 23 24 24 25 25 24 24 24 24 24 25 25 25 26 27 27 27 27 27 28 29 29 29 30 29 29 29 29 29 29 29 29 29 29 29 29 29 29 29 28 28 27 27 27 27 27 27 27 28 28 28
19 19 20 21 22 24 25 25 26 25 25 25 25 25 25 25 25 25 25 25 26 26 26 26 26 26 27 27 27 27 27 27 27 27 28 28 29 29 29 29 29 29 30 31 31 30 31 31 31 31 31 31 31 31 30 30 30 30 30 30 30 30 30 29 29 29 29 29 28 28 28 28 29 29
21 21 22 22 23 24 25 26 27 28 27 27 26 26 26 27 27 27 27 28 28 28 28 28 28 29 29 29 29 29 30 30 30 30 31 31 31 31 31 31 31 32 33 33 32 32 32 32 32 32 32 32 32 32 32 32 31 31 31 31 30 30 30 30 31 31 30 30 30 30 30 29 29 29
23 24 24 25 25 26 27 27 28 29 29 28 28 28 28 28 29 29 30 30 30 30 30 31 31 31 31 31 31 31 32 32 32 33 33 33 33 33 33 34 34 35 35 35 34 34 33 33 33 33 33 33 33 33 33 33 33 32 32 32 31 31 31 31 31 31 32 32 32 31 31 31 31 31
24 25 26 26 27 27 28 28 28 29 29 29 29 29 29 29 30 30 31 31 31 32 32 32 33 33 33 33 33 33 33 34 34 35 35 35 35 35 35 36 36 37 37 37 36 36 35 35 35 34 34 34 34 34 34 34 34 33 33 32 32 32 31 31 31 31 32 32 32 32 33 33 32 32
25 25 26 27 27 27 28 28 28 28 29 29 29 29 30 30 31 31 31 32 32 33 33 33 34 34 34 35 35 35 35 36 37 37 37 38 38 38 38 38 38 38 38 38 38 38 37 36 36 36 36 36 36 36 36 35 35 34 33 33 33 32 32 32 32 32 32 32 33 33 33 34 34 34
25 25 25 26 26 27 27 28 28 28 29 29 30 30 31 32 32 32 33 33 33 34 34 33 34 35 35 36 37 37 38 38 39 39 40 40 40 40 41 40 40 39 39 39 39 39 38 37 38 38 37 37 37 37 37 37 36 35 34 34 34 33 33 33 32 32 32 33 33 33 34 34 35 35
25 25 25 25 26 26 27 27 27 27 29 29 30 31 31 32 33 33 33 33 33 34 34 34 35 36 37 38 39 39 40 40 41 41 42 42 42 42 42 42 41 40 40 40 40 40 39 38 39 39 39 38 38 38 37 37 36 35 35 35 35 34 34 34 34 34 34 33 33 34 34 34 34 35
25 25 25 25 25 26 26 27 27 28 29 30 31 31 32 32 33 33 34 34 34 34 35 35 36 37 38 39 39 40 40 41 41 42 42 42 42 43 43 43 42 41 41 40 40 40 40 39 39 40 40 39 39 38 37 37 36 36 36 36 36 36 36 36 35 35 35 35 35 35 35 35 35 35
25 25 25 25 26 26 27 27 28 29 30 31 31 32 32 33 33 33 34 34 35 35 35 36 37 38 38 39 40 40 41 41 41 42 42 42 43 43 43 43 43 43 41 40 40 40 41 40 40 40 40 40 39 38 37 37 37 37 38 38 38 38 38 38 38 37 37 37 37 37 37 37 37 37
26 26 26 26 26 27 27 28 28 29 30 31 31 32 32 32 32 33 34 34 35 35 36 37 37 38 39 39 40 41 41 41 41 42 42 42 43 43 43 43 43 43 41 40 40 41 42 41 41 41 41 40 39 38 38 38 39 39 39 40 40 40 40 40 40 40 40 40 40 39 39 38 38 38
27 27 27 27 27 27 28 28 28 29 29 30 31 31 32 32 32 33 33 34 35 35 36 37 38 38 39 40 40 41 41 41 42 42 42 43 43 43 44 44 43 43 42 42 42 42 42 42 42 41 41 41 41 40 40 41 40 40 40 41 41 41 42 41 41 42 42 42 42 41 41 40 40 39
27 27 27 28 28 28 28 28 29 29 30 30 31 32 32 32 32 33 34 34 35 36 37 38 38 39 40 40 40 41 41 42 42 43 43 43 43 44 44 44 44 44 44 44 43 43 43 43 43 43 43 43 43 43 43 42 42 41 42 42 42 42 42 42 42 42 42 42 42 42 41 41 40 40
28 28 28 28 28 28 29 29 29 29 30 30 31 32 32 32 33 34 34 35 36 37 37 38 38 39 39 39 40 40 41 42 42 43 43 44 44 44 44 45 45 45 45 44 44 44 44 44 44 44 44 44 45 44 44 43 43 42 43 43 43 43 43 43 43 43 42 42 43 43 42 41 41 41
29 29 29 29 29 29 29 30 30 30 30 31 31 31 32 32 33 34 35 35 36 36 37 37 38 38 38 39 39 40 40 41 41 42 43 43 43 43 44 44 45 45 45 45 44 44 45 45 45 44 45 46 46 45 45 44 44 43 43 43 43 44 44 43 43 43 43 43 43 43 42 41 41 40
30 30 30 29 29 30 30 30 30 30 30 31 31 31 32 32 33 33 34 35 35 36 36 36 37 37 37 38 38 39 39 39 40 40 40 41 41 41 41 42 42 43 44 44 44 44 44 44 45 45 45 45 46 45 45 45 44 43 43 43 43 43 43 43 43 43 43 43 42 42 42 42 41 40
30 30 29 29 29 30 30 30 30 30 30 30 30 30 31 32 32 33 34 34 34 35 35 36 36 36 36 37 37 37 38 38 38 38 38 38 38 39 39 40 40 41 41 42 42 43 43 43 44 44 44 44 44 44 44 44 43 43 43 43 43 42 42 42 43 42 42 42 42 42 42 42 42 41
30 30 29 29 30 30 30 30 30 30 29 29 29 30 30 31 32 32 32 33 33 34 34 34 34 35 35 35 36 36 36 36 36 36 37 37 37 38 38 39 39 39 40 41 41 42 42 43 43 43 43 43 43 43 43 43 43 43 42 43 42 42 41 41 41 41 42 42 42 42 42 42 42 42
30 30 30 29 29 29 29 28 28 28 28 28 28 29 29 30 30 31 31 31 31 32 32 32 33 34 34 35 35 35 35 36 36 36 37 38 38 38 38 39 39 39 39 40 40 41 41 42 42 42 42 42 42 43 43 43 43 43 42 42 42 42 42 41 41 41 41 41 41 41 41 41 41 41
30 30 29 29 29 28 28 27 27 27 27 27 27 28 28 28 29 29 29 29 29 30 30 31 32 33 34 34 35 35 36 36 37 37 37 38 38 38 38 39 39 39 38 38 38 39 39 40 40 40 40 40 41 41 41 41 41 41 41 41 42 42 42 42 42 41 41 41 41 41 40 40 40 40
29 29 28 28 27 27 26 26 26 25 25 26 26 26 26 26 26 26 27 27 28 29 30 31 32 33 34 34 35 35 36 36 37 37 37 38 38 38 38 38 37 37 36 36 35 35 35 36 36 37 37 38 38 38 38 38 38 38 38 39 39 40 40 40 40 40 39 39 40 40 40 40 39 39
28 27 27 26 26 25 25 24 24 24 24 24 24 24 24 24 24 25 25 26 27 28 30 31 32 33 34 34 35 36 36 36 36 36 36 36 36 35 35 34 33 33 32 32 31 31 31 31 32 32 32 33 33 33 34 34 34 34 34 35 36 36 37 37 37 37 37 37 38 38 39 39 38 37
26 26 25 25 24 23 22 22 22 22 22 22 22 22 22 22 23 24 25 26 27 28 30 31 32 33 34 34 35 35 35 35 34 34 33 32 31 30 29 28 28 28 28 28 28 27 27 27 27 27 27 27 27 28 28 29 29 29 29 30 30 31 32 32 32 32 33 33 34 35 35 35 35 34
25 24 23 22 21 21 20 20 20 20 20 20 20 20 20 21 22 22 24 25 27 28 30 31 32 33 33 34 34 34 33 32 31 29 28 26 25 25 24 24 24 25 25 25 25 25 25 25 25 25 24 24 24 24 24 25 25 24 24 25 25 26 26 26 26 27 28 29 30 31 31 31 31 30
22 21 20 19 19 19 18 18 18 18 18 18 18 18 19 19 20 22 24 26 27 29 30 31 32 33 33 32 31 30 28 27 25 23 22 22 21 21 21 22 22 23 23 23 24 24 24 24 24 24 23 23 22 22 22 23 23 23 22 22 22 22 22 22 22 23 24 24 25 26 27 27 27 26
20 19 18 17 17 17 17 17 16 16 16 16 16 16 17 19 20 22 24 26 27 29 30 31 31 31 30 29 27 25 23 22 20 19 19 19 19 20 20 20 21 22 23 23 23 23 23 23 23 23 23 22 22 22 22 22 22 22 21 21 21 20 19 19 19 19 20 20 21 21 22 22 22 22
17 17 16 16 16 16 15 15 15 14 14 14 14 15 17 18 20 22 24 26 27 28 29 30 30 28 26 24 23 21 19 18 17 17 18 18 19 19 19 21 22 23 23 24 23 23 23 23 23 22 22 22 21 21 21 21 21 22 21 20 20 19 18 17 16 17 16 16 16 16 17 17 18 18
16 15 15 15 14 14 13 13 12 12 12 12 13 15 16 18 20 22 24 25 27 28 29 28 27 25 23 21 19 18 17 16 16 17 17 18 19 19 20 21 22 23 23 23 23 22 22 22 22 21 21 20 20 20 20 20 20 20 20 19 17 17 16 15 15 14 14 13 13 13 13 14 14 15
14 14 14 13 13 12 11 10 10 10 10 11 13 14 16 17 19 21 23 25 27 28 27 26 24 22 20 18 17 16 16 16 16 17 18 18 19 20 21 21 21 22 22 22 22 21 21 21 21 20 19 18 17 17 17 17 17 17 17 15 14 14 14 14 13 12 12 11 11 11 11 12 12 13
14 13 12 11 11 10 9 8 8 9 10 11 12 13 15 17 19 21 23 24 26 26 25 23 21 20 18 17 16 15 16 16 17 18 18 19 19 20 20 20 21 21 21 21 21 21 21 20 19 18 17 16 15 15 15 15 15 15 14 13 12 12 12 12 12 11 11 10 10 10 10 10 11 12
12 11 11 10 9 8 8 7 8 8 9 10 11 13 15 17 19 20 22 24 25 25 23 21 19 18 17 16 16 16 16 17 17 18 18 19 19 19 20 20 21 21 20 20 20 20 19 18 17 16 15 14 13 14 14 14 14 13 12 11 11 11 10 9 9 9 9 9 9 9 9 9 9 10
11 10 10 9 8 7 7 7 7 7 8 9 11 12 14 16 18 20 21 23 24 24 22 20 18 17 16 16 16 16 16 17 18 18 18 18 19 19 19 20 20 20 19 19 19 19 18 16 15 14 13 12 11 12 12 12 12 11 11 11 10 9 9 8 7 7 7 7 7 7 7 7 7 8
10 9 9 8 7 7 6 6 6 7 7 9 11 12 14 16 18 19 21 22 23 23 22 20 18 17 16 16 16 16 16 17 18 18 18 18 19 18 18 19 19 19 18 18 18 18 17 15 14 12 12 11 10 10 10 10 10 10 10 10 9 8 8 8 7 6 6 5 5 5 5 5 6 6
Wind_Direction
183 179 182 190 194 213 274 317 316 316 316 312 315 323 323 307 287 283 292 294 295 303 305 303 307 308 308 308 306 305 303 302 300 297 294 292 290 289 289 286 284 282 281 278 275 273 272 270 269 268 268 266 265 265 264 265 265 264 263 262 261 262 262 262 261 261 261 262 262 261 261 261 260 259
219 219 222 229 238 254 275 292 298 299 301 301 302 306 312 319 309 293 294 297 298 304 307 307 308 309 309 311 309 306 305 303 301 299 297 296 294 293 292 291 288 286 285 283 281 279 276 275 274 274 274 273 272 271 269 268 268 267 266 265 264 264 264 263 262 262 262 262 262 262 262 262 261 260
245 247 251 255 258 264 273 282 288 289 288 289 290 293 297 305 307 300 296 297 298 300 303 305 306 305 307 310 309 307 307 306 303 300 298 297 295 294 293 292 292 290 288 287 286 284 282 280 279 279 279 279 279 278 276 274 272 270 268 267 266 266 265 264 263 262 262 262 262 262 262 262 262 261
262 260 260 264 268 271 275 280 283 284 283 283 284 287 290 295 299 300 300 298 297 298 300 302 304 305 305 306 306 304 304 305 304 302 300 298 296 294 292 291 292 291 290 289 287 286 285 283 283 283 283 283 283 283 282 280 278 275 272 270 268 267 267 265 264 262 262 262 262 262 262 262 262 262
274 272 269 268 269 271 272 275 278 279 279 279 280 281 285 289 292 296 299 298 295 296 297 299 302 302 302 304 306 304 302 303 303 301 300 299 296 294 292 290 290 291 290 289 288 287 286 285 285 284 284 284 285 284 284 284 282 280 278 276 273 270 268 266 264 263 262 261 261 261 261 262 262 262
278 278 278 275 273 272 271 272 273 274 275 276 276 276 279 283 287 291 295 295 295 295 296 298 300 300 300 302 304 303 301 301 301 300 299 299 297 297 295 291 289 290 289 288 288 287 286 285 285 284 284 285 285 285 284 284 284 283 281 279 277 274 270 268 266 264 262 261 261 261 261 262 262 262
276 278 279 278 277 275 274 273 273 273 274 275 275 275 277 279 283 287 290 291 292 293 293 295 297 298 299 300 301 301 299 298 298 297 297 298 297 297 297 294 291 291 291 289 288 287 286 286 285 284 284 284 285 286 285 284 284 284 283 282 280 278 274 270 267 265 263 261 260 260 260 261 262 262
274 276 276 276 276 274 274 273 273 273 274 275 275 275 276 277 280 283 287 289 290 291 291 292 293 295 296 296 297 298 297 296 296 296 295 295 296 296 296 295 292 291 291 290 289 288 287 286 285 284 283 283 284 284 285 284 284 283 282 282 281 280 278 275 270 266 263 262 261 260 260 261 261 262
274 276 276 274 273 272 272 272 272 273 274 276 277 277 277 278 280 282 285 288 289 290 290 290 291 293 294 295 295 295 295 294 295 295 294 293 294 294 295 294 292 290 291 291 291 290 289 287 286 284 282 282 282 282 283 283 283 282 281 280 280 279 278 276 273 269 266 263 262 262 261 261 262 262
272 274 275 274 271 269 270 270 271 272 273 275 277 278 279 280 281 282 284 286 288 288 288 288 288 290 292 293 294 294 294 294 294 294 292 291 292 293 294 294 292 291 292 293 292 292 290 289 288 286 284 282 281 281 281 281 281 280 279 278 278 277 276 275 273 270 268 265 263 262 262 262 262 262
270 270 271 270 269 268 268 269 270 272 273 274 275 277 279 280 281 283 284 285 286 286 286 286 287 288 289 290 291 292 292 292 293 294 293 291 292 292 293 293 292 291 291 292 293 292 291 290 289 287 285 283 282 281 281 280 279 279 278 277 276 276 275 274 272 270 268 266 264 262 262 261 261 262
272 270 269 268 268 268 268 269 271 272 274 274 275 276 278 279 280 282 283 285 286 286 286 286 287 288 288 289 289 289 290 291 292 293 292 292 291 291 291 291 289 289 290 291 291 291 291 290 288 288 286 284 283 283 282 281 279 278 277 275 274 274 273 273 272 270 268 267 265 263 261 260 261 261
273 272 270 269 268 268 268 269 270 271 272 273 274 275 276 277 278 279 281 283 285 286 286 286 287 288 288 288 288 288 289 289 290 290 290 290 290 290 290 289 288 288 289 289 290 290 290 289 288 287 286 284 284 284 283 282 281 279 277 276 274 273 271 271 270 269 269 267 266 264 262 261 261 261
274 272 272 271 269 268 268 269 269 270 270 271 273 274 275 277 278 279 280 282 283 283 284 286 287 288 288 287 287 286 286 287 287 288 289 289 289 289 289 289 288 289 289 289 289 288 288 287 286 286 285 283 283 283 283 282 281 280 279 277 275 273 271 270 268 268 267 266 266 265 264 263 262 261
274 273 274 274 273 272 271 270 270 269 269 271 272 272 274 275 277 279 281 281 282 282 283 285 286 286 286 286 286 285 285 286 286 287 288 288 289 288 288 288 288 289 290 289 288 287 287 286 285 285 284 283 283 282 281 281 281 280 279 278 276 275 273 271 269 267 266 265 264 264 263 263 262 262
275 274 276 276 276 274 273 272 271 270 270 271 272 272 274 275 277 279 280 280 281 281 283 285 285 285 285 285 285 285 285 285 286 286 287 287 288 288 287 287 287 289 289 288 287 286 286 286 285 284 284 283 282 281 281 281 280 279 278 277 276 275 274 272 270 268 267 265 264 263 263 262 262 262
275 276 277 277 276 275 274 273 273 271 270 270 272 273 275 277 279 279 279 280 280 281 282 284 284 284 284 284 284 284 285 285 285 286 287 287 287 287 287 287 287 288 288 287 286 285 285 285 284 284 283 283 282 281 280 280 280 278 276 275 275 274 273 272 271 270 268 267 266 265 264 263 263 263
278 278 278 277 277 276 275 275 274 272 270 271 272 274 276 278 279 279 279 280 280 281 282 283 283 283 283 284 284 284 284 285 285 286 286 286 286 286 286 287 287 287 286 285 284 284 284 284 283 282 283 282 281 281 280 279 279 278 276 275 274 273 273 272 271 270 269 268 267 266 265 264 264 263
282 282 280 279 278 277 277 276 274 272 271 272 273 275 277 278 278 279 280 280 281 282 282 283 283 283 283 283 283 283 283 284 285 285 286 286 285 285 285 286 287 286 286 285 284 282 282 283 282 281 282 281 281 280 280 279 277 276 275 275 274 273 272 272 271 270 269 268 267 266 266 265 265 264
284 283 282 280 279 279 278 276 274 272 272 273 275 276 277 278 279 281 281 282 282 283 283 283 284 283 283 282 283 283 284 284 284 285 285 285 284 284 284 285 286 286 286 286 284 281 281 282 281 280 281 281 280 279 279 278 276 274 273 274 274 273 273 272 271 270 269 268 267 267 266 266 265 265
285 285 284 282 281 280 279 277 275 274 274 275 276 277 278 279 280 281 282 283 283 284 284 284 285 284 283 283 284 284 284 284 284 284 284 284 284 284 284 284 284 285 285 285 283 281 281 282 281 280 280 279 279 278 277 276 275 273 272 272 271 271 271 271 271 270 269 268 267 267 266 266 265 265
286 286 285 284 283 282 280 278 277 276 276 277 277 278 279 280 280 281 282 283 284 284 285 285 285 285 285 285 285 285 285 285 285 284 284 284 284 284 283 283 283 283 283 283 282 281 281 281 281 280 280 279 278 277 276 275 274 273 272 270 270 270 270 270 270 269 269 269 268 267 266 266 266 265
285 285 285 285 284 282 282 281 280 279 278 278 279 279 280 280 281 282 282 284 284 285 285 286 285 285 286 286 286 286 286 286 285 285 284 284 284 284 283 283 283 282 281 282 281 280 280 280 280 280 279 278 277 276 275 275 275 274 272 271 270 270 270 269 269 269 268 268 267 267 267 266 266 266
285 284 284 284 284 283 282 282 282 281 281 280 280 280 281 281 282 283 284 285 286 286 286 286 286 286 286 286 286 286 286 286 286 285 285 284 283 283 283 283 282 281 280 281 281 280 279 279 279 279 278 277 276 275 275 275 275 274 273 272 271 270 270 269 268 268 268 267 267 266 266 266 266 266
284 284 283 284 284 284 283 283 283 283 282 282 282 282 282 283 283 284 285 286 286 286 287 287 287 287 287 287 287 287 286 286 286 286 285 284 283 283 282 282 281 280 280 281 280 279 278 278 278 278 277 276 275 276 276 275 274 274 273 273 272 271 271 270 269 269 268 267 266 265 265 266 265 265
284 283 283 283 283 284 283 283 283 283 283 283 283 283 283 283 284 284 285 286 286 287 287 288 288 289 289 289 288 288 288 287 287 286 286 285 284 283 282 281 280 280 280 280 279 278 278 277 277 277 276 276 275 276 275 275 275 274 274 273 273 272 271 271 270 269 268 266 265 264 264 265 265 265
283 283 283 283 283 283 283 283 283 283 283 283 282 282 283 283 284 285 286 286 287 288 288 289 289 290 290 290 290 290 290 289 289 288 287 286 285 284 283 281 280 280 280 280 279 277 277 277 276 276 276 276 275 275 275 275 275 274 274 273 273 272 271 270 270 269 267 266 265 264 264 264 264 264
283 283 283 283 283 283 282 282 282 282 282 282 282 283 283 284 285 286 287 287 288 289 289 290 290 290 291 291 291 291 291 291 290 290 289 288 286 285 284 283 282 281 280 280 279 277 277 276 276 276 276 275 275 275 275 274 274 274 274 273 272 272 271 270 269 268 267 266 265 264 264 263 263 263
282 283 283 283 283 283 283 282 282 282 282 283 284 285 286 286 286 287 288 289 289 290 290 290 291 291 292 292 292 292 292 292 291 291 290 289 288 287 286 285 284 283 282 281 280 279 277 277 276 276 275 275 274 274 274 274 274 273 273 272 272 271 271 270 269 268 267 265 264 263 263 262 262 262
282 282 282 282 283 283 283 283 283 283 284 286 287 288 288 288 288 289 289 290 290 290 291 291 292 292 293 293 293 293 293 293 292 292 291 291 290 289 288 287 286 285 284 282 281 279 278 277 276 276 275 275 274 274 274 274 273 273 272 271 271 270 270 269 268 267 266 266 265 263 263 262 261 261
282 282 282 282 282 283 284 284 284 284 285 286 287 288 289 289 289 290 290 290 291 291 292 293 293 294 294 294 294 294 294 294 294 294 293 292 292 291 290 289 288 287 286 284 282 280 279 277 277 276 276 275 275 275 274 274 273 273 272 271 270 270 269 268 268 267 266 266 264 263 263 262 261 261
281 281 281 282 282 283 284 284 284 285 285 286 287 288 289 290 290 290 291 292 292 293 294 295 295 295 295 295 295 295 295 295 295 295 295 294 293 293 292 291 290 289 288 286 284 282 280 279 278 277 277 277 276 276 275 274 273 273 273 272 271 270 270 269 268 267 267 265 264 263 262 262 262 261
280 280 281 282 282 283 283 283 284 284 285 286 288 289 290 291 291 293 294 295 295 296 296 297 297 297 297 297 297 297 297 297 297 296 296 295 294 293 292 291 291 290 289 288 287 285 283 281 280 279 278 277 277 276 275 274 274 274 273 272 272 271 270 269 268 267 266 265 263 263 262 262 261 261
279 280 280 281 281 282 282 282 282 284 285 287 289 290 292 293 295 296 297 297 298 298 299 299 299 299 298 298 299 299 299 299 298 297 296 296 295 294 294 293 292 291 291 290 289 288 287 285 284 283 281 280 278 276 275 274 274 274 274 273 273 272 271 270 269 267 265 264 262 262 262 262 261 260
278 279 279 279 280 280 280 281 282 284 286 288 290 293 295 296 297 298 299 300 301 301 302 302 302 301 301 300 300 300 300 300 299 298 298 297 296 296 295 295 294 294 294 293 293 292 290 289 287 285 284 283 282 279 276 274 274 275 276 276 275 274 273 272 269 267 265 263 262 261 261 261 260 259
276 277 277 277 277 278 279 280 282 284 286 289 292 295 296 298 299 301 303 304 305 305 305 304 304 304 303 302 302 302 301 301 300 300 299 299 299 299 299 299 299 299 298 297 296 295 294 292 289 286 285 284 283 282 280 276 274 275 278 279 278 276 274 272 270 267 265 263 261 259 258 258 258 256
273 274 274 274 274 276 278 280 282 284 287 290 293 295 297 300 303 306 307 308 308 308 308 307 307 306 306 305 304 304 303 302 302 301 302 303 303 303 303 303 303 302 301 300 299 297 295 293 290 287 285 284 282 281 281 280 277 276 278 281 281 278 276 273 271 269 266 263 260 257 255 255 255 254
269 269 270 272 274 276 278 280 282 284 287 290 293 297 301 305 308 310 311 311 312 312 312 311 311 310 309 308 307 306 305 304 304 304 304 305 305 305 305 306 306 306 305 303 302 299 297 294 291 288 285 283 282 280 281 282 279 277 278 282 283 281 277 274 273 272 268 264 260 256 253 252 251 250
265 267 269 272 273 275 276 278 280 283 287 291 296 301 306 309 312 313 315 316 316 317 316 315 314 313 312 310 309 307 306 305 306 306 307 307 306 307 308 309 309 308 308 307 305 303 300 297 294 291 287 283 281 280 281 282 280 278 279 281 281 280 277 275 273 272 270 266 261 256 252 249 247 245
265 268 270 270 270 271 272 274 277 282 288 294 301 306 310 313 315 317 319 320 321 321 320 318 317 316 315 313 310 308 307 308 309 309 309 309 309 310 311 311 310 310 310 309 308 307 305 302 299 294 290 285 282 281 282 282 278 276 277 278 276 274 273 273 272 271 270 266 260 254 250 247 244 243
265 266 266 265 264 265 266 270 276 284 292 299 305 310 313 317 320 322 323 324 325 324 323 322 320 319 317 315 313 311 310 309 309 309 310 311 312 313 313 313 313 313 313 311 310 309 308 306 303 297 292 287 283 282 283 281 277 275 275 275 273 270 269 269 268 266 264 261 255 251 248 246 243 242
261 259 258 256 255 256 261 269 279 288 296 303 308 314 318 322 324 326 327 328 330 329 328 327 324 322 320 318 315 313 311 309 309 311 313 315 316 316 316 316 316 316 315 314 313 313 312 312 308 302 295 288 281 278 279 278 275 274 273 272 269 268 269 268 263 257 253 251 250 249 248 247 247 246
252 249 247 246 246 251 260 272 281 290 298 306 312 318 323 326 329 330 332 334 335 335 334 331 328 325 322 319 316 313 312 311 312 314 317 319 319 318 318 318 318 318 318 318 317 316 316 316 314 310 302 292 280 275 276 276 273 270 269 267 265 264 266 264 257 249 246 245 246 247 246 246 249 250
240 238 237 237 241 251 262 272 281 290 300 309 317 323 328 331 333 335 336 338 340 340 339 336 333 330 325 321 317 316 315 315 316 317 319 320 320 318 318 319 321 321 321 322 321 320 319 319 318 316 310 301 288 279 276 275 272 267 263 263 261 257 253 248 243 239 239 240 242 245 244 243 248 251
229 229 230 234 242 251 259 269 280 292 304 315 322 328 332 335 337 339 340 342 344 344 343 340 337 335 331 326 322 321 320 320 320 321 321 321 320 319 320 322 325 326 326 326 325 324 322 321 320 319 315 308 297 287 279 277 274 266 258 256 254 249 243 238 234 231 230 233 241 248 246 243 246 246